{"data":{"norad_id":65461,"epoch":"2026-05-25T00:57:36.419904Z","epoch_age_seconds":85686,"freshness":"FRESH","line1":"1 65461U 25195D   26145.04000486  .00020077  00000+0  60380-3 0  9999","line2":"2 65461  53.1577 263.5210 0000818  89.1880 270.9216 15.34396465 41684","mean_motion":15.34396465,"eccentricity":8.18e-5,"inclination_deg":53.1577,"raan_deg":263.521,"arg_perigee_deg":89.188,"mean_anomaly_deg":270.9216,"bstar":0.0006038,"rev_number":4168,"period_min":93.847974291312,"perigee_km":462.15416540114,"apogee_km":463.27332858335,"semimajor_km":6840.8507469922,"source":"CELESTRAK","updated_at":"2026-05-25T13:38:20.812029Z"}}